[[{"header":{"parameterUnit":"m.s-1","parameterCategory":1,"la1":30.2991,"la2":30.254,"lo1":-89.0895,"lo2":-89.0444,"dy":0.0017,"dx":0.0017,"nx":28,"ny":28,"refTime":"2024-12-02T09:00:00:Z","depth":0,"parameterNumber":2,"parameterNumberName":"U-component_of_WINDS"},"data":[0,0,0,0,0,0,0,0,0,0,0,0,0,0,0,0,0,0,0,0,0,0,0,0,0,0,0,0,0,0,0,0,0,0,0,0,0,0,0,0,0,0,0,0,0,0,0,0,0,0,0,0,0,0,0,0,0,0,0.2483,0.2483,0,0.2497,0.2498,0.2498,0.2524,0.2525,0.2525,0.2526,0.2539,0.2539,0.2539,0,0,0,0,0,0,0,0,0,0,0,0,0,0.248,0.248,0.2483,0.2483,0.2484,0.2497,0.2498,0.2498,0.2524,0.2525,0.2525,0.2526,0.2539,0.2539,0.2539,0,0,0,0,0,0,0,0,0,0,0,0,0,0.2486,0.248,0.2483,0.2499,0.25,0.2497,0.2498,0.2498,0.2524,0.2525,0.2526,0.2526,0.2539,0.2539,0.2539,0.2522,0,0,0.2538,0.2538,0,0,0,0,0,0,0,0,0.2486,0.2487,0.2496,0.2497,0.2499,0.251,0.2501,0.2506,0.2524,0.2515,0.2526,0.2527,0.2529,0.253,0.253,0.2523,0.2523,0.2538,0.2538,0.2538,0.2538,0,0,0,0,0,0,0,0.2486,0.2486,0.2489,0.2496,0.2498,0.2505,0.2507,0.2502,0.2517,0.2516,0.2518,0.2519,0.253,0.2531,0.2531,0.2524,0.2538,0.2538,0.2538,0.2538,0.2506,0.2505,0,0,0,0,0,0,0.2483,0.2485,0.2488,0.2489,0.2494,0.2504,0.2506,0.2506,0.2517,0.252,0.2518,0.252,0.253,0.2531,0.2532,0.2514,0.2538,0.2538,0.2538,0.2506,0.2505,0.2505,0,0,0,0,0,0,0.2483,0.2483,0.2488,0.2488,0.2489,0.2504,0.2503,0.2506,0.2506,0.2519,0.2522,0.2516,0.2531,0.2532,0.2525,0.2515,0.2538,0.2538,0.2507,0.2506,0.2505,0.2478,0,0,0,0,0,0,0.2482,0.2483,0.2476,0.2488,0.2489,0.2481,0.2502,0.2505,0.2506,0.2509,0.2518,0.2521,0.2532,0.2525,0.2525,0.2515,0.2538,0.2508,0.2507,0.2505,0.248,0.2477,0.2473,0,0,0,0,0,0.2482,0.2467,0.2476,0.2476,0.2481,0.248,0.2481,0.2494,0.2505,0.2499,0.2508,0.252,0.2516,0.2524,0.2524,0.2514,0.2509,0.2507,0.2506,0.2482,0.2477,0.2473,0,0,0,0,0,0,0.2453,0.2469,0.2478,0.2467,0.2472,0.2484,0.2477,0.2489,0.2491,0.2493,0.2509,0.2511,0.2503,0.2508,0.2516,0.25,0.2515,0.2513,0.2497,0.2493,0.2489,0.2488,0.2537,0,0,0,0,0,0.2446,0.2443,0.2457,0.2446,0.2448,0.2462,0.2462,0.2472,0.2478,0.248,0.2488,0.2494,0.2494,0.2493,0.2494,0.2481,0.2485,0.2475,0.2471,0.2468,0.2467,0.2462,0.2458,0.2499,0.2499,0.2499,0,0,0.2429,0.2438,0.2435,0.244,0.2445,0.2443,0.2464,0.246,0.2459,0.248,0.2474,0.2481,0.2488,0.2478,0.2475,0.2482,0.2456,0.2466,0.2464,0.2464,0.246,0.2456,0.2453,0.2498,0.2498,0.2498,0,0,0.2399,0.2405,0.2397,0.2402,0.241,0.242,0.2418,0.243,0.2435,0.243,0.2446,0.2445,0.2445,0.245,0.2452,0.2426,0.2439,0.2426,0.2408,0.2404,0.24,0.2398,0.239,0.2386,0.2424,0.2424,0.2424,0,0.2378,0.2375,0.2391,0.2387,0.2389,0.2409,0.2402,0.2406,0.2414,0.2415,0.2424,0.2425,0.2431,0.2424,0.2418,0.2419,0.2418,0.2425,0.24,0.2397,0.2395,0.2387,0.2384,0.2423,0.2423,0.2423,0.2423,0,0.2349,0.2347,0.234,0.2348,0.235,0.2344,0.2359,0.2359,0.2369,0.2379,0.2374,0.2383,0.2386,0.2386,0.2395,0.2381,0.2385,0.2397,0.2412,0.2389,0.2382,0.238,0.2421,0.2421,0.2422,0.2422,0,0,0.2299,0.2318,0.2315,0.232,0.2332,0.2331,0.2327,0.2331,0.2331,0.2336,0.2334,0.2334,0.2345,0.2348,0.2359,0.2355,0.2336,0.2367,0.2368,0.2362,0.2322,0.2314,0.231,0.2344,0.2344,0.2344,0.2322,0,0.2272,0.2266,0.2281,0.2271,0.2271,0.2291,0.2288,0.2295,0.2304,0.2305,0.2315,0.2315,0.233,0.2332,0.2329,0.2339,0.2328,0.2341,0.2343,0.2343,0.2341,0.2307,0.2298,0.2277,0.2319,0.2319,0.2319,0,0.2239,0.2244,0.2234,0.2249,0.2249,0.2246,0.2252,0.2253,0.2262,0.2269,0.2273,0.2287,0.2284,0.2299,0.2297,0.2305,0.2307,0.2313,0.2312,0.2313,0.2329,0.2307,0.227,0.2267,0.2314,0.2315,0.2315,0,0.2205,0.2209,0.2204,0.2208,0.2224,0.2222,0.2228,0.2238,0.2241,0.2247,0.2249,0.2254,0.2257,0.2261,0.2275,0.2285,0.2272,0.2288,0.2278,0.2278,0.2275,0.2275,0.2238,0.2275,0.2275,0.2275,0.2275,0,0.2173,0.2166,0.219,0.2187,0.2181,0.2199,0.2193,0.2201,0.2211,0.2211,0.2228,0.2228,0.2247,0.2249,0.2261,0.2258,0.2259,0.2265,0.2268,0.2264,0.2263,0.2265,0.2267,0.2274,0.2275,0.2275,0.2275,0,0.2133,0.2148,0.2145,0.2162,0.2166,0.2161,0.2175,0.2174,0.2185,0.2185,0.2185,0.2203,0.2206,0.2222,0.2228,0.2236,0.223,0.2236,0.2227,0.2229,0.2219,0.222,0.2183,0.218,0.2218,0.2218,0.2218,0,0.2112,0.2108,0.2124,0.2126,0.2132,0.2134,0.2137,0.2155,0.2158,0.217,0.2167,0.2172,0.2177,0.2182,0.2195,0.2201,0.2208,0.2195,0.2209,0.2205,0.2209,0.2209,0.2209,0.2191,0.2191,0.219,0.219,0,0.2072,0.2081,0.2085,0.2092,0.2096,0.2102,0.2109,0.211,0.213,0.2132,0.2137,0.2141,0.2149,0.2154,0.2163,0.217,0.2184,0.2186,0.2184,0.2179,0.2175,0.2178,0.2219,0.2186,0.2187,0.2187,0.2187,0.2187,0.2042,0.204,0.2052,0.2057,0.2065,0.2072,0.2072,0.2084,0.2088,0.2096,0.2107,0.211,0.2122,0.2135,0.2141,0.2145,0.2152,0.2149,0.2149,0.2148,0.2146,0.2174,0.2146,0.2146,0.2146,0.2146,0.2147,0,0.2005,0.2014,0.2018,0.2029,0.2033,0.2046,0.2056,0.2058,0.2061,0.2071,0.2076,0.2082,0.2088,0.2102,0.211,0.211,0.2117,0.2111,0.2112,0.2114,0.2138,0.214,0.2106,0.2106,0.2106,0.2106,0.2106,0.2106,0.1986,0.1984,0.1994,0.1997,0.2006,0.201,0.2015,0.2022,0.203,0.2036,0.2041,0.2051,0.2063,0.2072,0.2079,0.2083,0.2085,0.2078,0.2085,0.2108,0.2111,0.2115,0.2116,0.2078,0.2078,0.206,0.2059,0.2059]},{"header":{"parameterUnit":"m.s-1","parameterCategory":1,"la1":30.2991,"la2":30.254,"lo1":-89.0895,"lo2":-89.0444,"dy":0.0017,"dx":0.0017,"nx":28,"ny":28,"refTime":"2024-12-02T09:00:00:Z","depth":0,"parameterNumber":3,"parameterNumberName":"V-component_of_WINDS"},"data":[0,0,0,0,0,0,0,0,0,0,0,0,0,0,0,0,0,0,0,0,0,0,0,0,0,0,0,0,0,0,0,0,0,0,0,0,0,0,0,0,0,0,0,0,0,0,0,0,0,0,0,0,0,0,0,0,0,0,-2.8037,-2.8038,0,-2.8086,-2.8087,-2.8087,-2.8049,-2.8048,-2.8046,-2.8045,-2.8093,-2.8095,-2.8098,0,0,0,0,0,0,0,0,0,0,0,0,0,-2.7908,-2.7911,-2.8037,-2.8038,-2.8039,-2.8086,-2.8087,-2.8088,-2.805,-2.8048,-2.8046,-2.8044,-2.8092,-2.8095,-2.8098,0,0,0,0,0,0,0,0,0,0,0,0,0,-2.7962,-2.7912,-2.8037,-2.8026,-2.8025,-2.8086,-2.8087,-2.8088,-2.805,-2.8048,-2.8045,-2.8043,-2.8091,-2.8095,-2.8099,-2.8173,0,0,-2.8111,-2.8113,0,0,0,0,0,0,0,0,-2.7959,-2.7966,-2.8027,-2.8027,-2.8026,-2.8059,-2.8059,-2.8116,-2.8051,-2.8041,-2.8045,-2.8042,-2.8083,-2.8088,-2.8102,-2.8176,-2.8178,-2.8112,-2.8114,-2.8116,-2.8117,0,0,0,0,0,0,0,-2.7955,-2.7964,-2.8057,-2.8028,-2.8027,-2.8017,-2.8022,-2.807,-2.8075,-2.8041,-2.8039,-2.8045,-2.8083,-2.8098,-2.8103,-2.8178,-2.8112,-2.8115,-2.8118,-2.812,-2.8314,-2.8316,0,0,0,0,0,0,-2.7953,-2.7961,-2.8055,-2.8058,-2.7986,-2.8021,-2.8027,-2.8051,-2.8074,-2.8076,-2.8047,-2.8043,-2.8093,-2.8098,-2.8105,-2.8193,-2.8116,-2.812,-2.8122,-2.8311,-2.8314,-2.8317,0,0,0,0,0,0,-2.795,-2.7962,-2.8053,-2.8009,-2.802,-2.8026,-2.8054,-2.8053,-2.8069,-2.8079,-2.8079,-2.8063,-2.8091,-2.8099,-2.8156,-2.8194,-2.8122,-2.8126,-2.8308,-2.8312,-2.8316,-2.837,0,0,0,0,0,0,-2.7947,-2.7961,-2.799,-2.801,-2.8022,-2.8105,-2.8056,-2.8056,-2.8077,-2.8072,-2.8093,-2.8094,-2.809,-2.815,-2.8161,-2.8198,-2.8129,-2.8305,-2.831,-2.8314,-2.8365,-2.8375,-2.8384,0,0,0,0,0,-2.7942,-2.8003,-2.7992,-2.8003,-2.8059,-2.8107,-2.8114,-2.8108,-2.808,-2.8109,-2.8115,-2.8094,-2.8188,-2.8157,-2.8168,-2.8207,-2.8302,-2.8308,-2.8314,-2.836,-2.8373,-2.8384,0,0,0,0,0,0,-2.7987,-2.8006,-2.7993,-2.8062,-2.8084,-2.8101,-2.8137,-2.8122,-2.8151,-2.8145,-2.8135,-2.814,-2.8201,-2.821,-2.8174,-2.828,-2.8241,-2.8249,-2.8272,-2.8284,-2.8294,-2.829,-2.8133,0,0,0,0,0,-2.8005,-2.8043,-2.8057,-2.8117,-2.8128,-2.8131,-2.8152,-2.8145,-2.8166,-2.8175,-2.8185,-2.8206,-2.824,-2.8263,-2.8295,-2.8366,-2.8369,-2.8398,-2.8408,-2.8416,-2.8423,-2.846,-2.8473,-2.8337,-2.8337,-2.8336,0,0,-2.8042,-2.8057,-2.8082,-2.8126,-2.8142,-2.8181,-2.8139,-2.8182,-2.821,-2.8181,-2.8236,-2.8244,-2.8266,-2.8331,-2.836,-2.834,-2.8462,-2.8424,-2.843,-2.8433,-2.8468,-2.8481,-2.8492,-2.8341,-2.834,-2.8339,0,0,-2.813,-2.8146,-2.8197,-2.8213,-2.8238,-2.8239,-2.8251,-2.8271,-2.8275,-2.833,-2.8309,-2.8342,-2.8402,-2.8418,-2.8434,-2.8528,-2.8509,-2.8538,-2.8589,-2.8625,-2.8636,-2.8645,-2.8677,-2.8689,-2.8546,-2.8546,-2.8546,0,-2.8173,-2.8232,-2.8225,-2.827,-2.8289,-2.8265,-2.8316,-2.8332,-2.8365,-2.8379,-2.8357,-2.843,-2.8444,-2.8511,-2.8534,-2.8548,-2.8561,-2.8536,-2.8635,-2.8644,-2.8653,-2.8684,-2.8696,-2.8549,-2.8549,-2.8548,-2.8548,0,-2.8283,-2.8324,-2.8362,-2.8396,-2.8419,-2.8467,-2.8466,-2.8491,-2.8482,-2.8485,-2.8541,-2.8556,-2.8591,-2.8606,-2.8598,-2.8672,-2.8659,-2.8636,-2.8596,-2.8669,-2.8698,-2.871,-2.8554,-2.8553,-2.8552,-2.8551,0,0,-2.8401,-2.8429,-2.8443,-2.8457,-2.8482,-2.8513,-2.8559,-2.8593,-2.8614,-2.8638,-2.8675,-2.8726,-2.8705,-2.8723,-2.8716,-2.8748,-2.882,-2.8721,-2.8721,-2.8738,-2.8901,-2.8918,-2.8932,-2.8808,-2.881,-2.8812,-2.8899,0,-2.8489,-2.857,-2.8564,-2.864,-2.8677,-2.8654,-2.8694,-2.8713,-2.8717,-2.8748,-2.8752,-2.8788,-2.8758,-2.8769,-2.8799,-2.8805,-2.8852,-2.8798,-2.8841,-2.8843,-2.8836,-2.8947,-2.8965,-2.9046,-2.891,-2.8912,-2.8914,0,-2.8603,-2.8631,-2.871,-2.8729,-2.8744,-2.878,-2.881,-2.8841,-2.8861,-2.8862,-2.8882,-2.887,-2.8915,-2.8874,-2.8936,-2.8899,-2.8916,-2.8922,-2.8924,-2.8928,-2.8882,-2.8952,-2.9072,-2.9084,-2.8931,-2.893,-2.8929,0,-2.8679,-2.8737,-2.8791,-2.8805,-2.8828,-2.8853,-2.8864,-2.8882,-2.8902,-2.8929,-2.8941,-2.8973,-2.8989,-2.9013,-2.9009,-2.898,-2.9071,-2.903,-2.9072,-2.9072,-2.9091,-2.909,-2.9215,-2.9104,-2.9104,-2.9104,-2.9103,0,-2.8778,-2.8827,-2.8826,-2.886,-2.8914,-2.8906,-2.896,-2.8967,-2.8984,-2.9017,-2.9,-2.9031,-2.9024,-2.9056,-2.9053,-2.9103,-2.9111,-2.9112,-2.911,-2.9113,-2.9113,-2.9124,-2.9118,-2.9107,-2.9106,-2.9105,-2.9105,0,-2.8872,-2.8874,-2.8932,-2.8949,-2.8954,-2.8993,-2.9007,-2.9038,-2.9041,-2.9084,-2.9093,-2.9097,-2.9133,-2.9131,-2.9172,-2.917,-2.9232,-2.9224,-2.9225,-2.9223,-2.9264,-2.926,-2.94,-2.9417,-2.9296,-2.9297,-2.9298,0,-2.8935,-2.8972,-2.8993,-2.9015,-2.9027,-2.9063,-2.9083,-2.9077,-2.91,-2.9125,-2.9153,-2.9188,-2.9215,-2.9273,-2.9279,-2.9309,-2.9302,-2.9349,-2.9306,-2.9307,-2.9301,-2.9299,-2.9302,-2.9357,-2.9358,-2.9359,-2.936,0,-2.9046,-2.9044,-2.9075,-2.9107,-2.9132,-2.9156,-2.9178,-2.9197,-2.9193,-2.9219,-2.9256,-2.9277,-2.9318,-2.9352,-2.9381,-2.9391,-2.9375,-2.9373,-2.9384,-2.9387,-2.9386,-2.9386,-2.9247,-2.937,-2.9369,-2.9368,-2.9368,-2.9367,-2.9125,-2.9157,-2.9177,-2.9212,-2.9228,-2.9249,-2.9278,-2.9285,-2.9316,-2.9349,-2.9344,-2.9384,-2.9403,-2.944,-2.9453,-2.9484,-2.9467,-2.9483,-2.9487,-2.9491,-2.9495,-2.9382,-2.9489,-2.9489,-2.9489,-2.9489,-2.9488,0,-2.9234,-2.9246,-2.9278,-2.9309,-2.9337,-2.932,-2.9343,-2.9366,-2.9403,-2.9422,-2.9449,-2.9491,-2.9523,-2.9532,-2.9563,-2.9586,-2.9579,-2.9594,-2.9592,-2.9594,-2.9509,-2.9496,-2.9599,-2.9599,-2.9599,-2.9599,-2.9599,-2.9599,-2.9294,-2.9347,-2.9347,-2.9407,-2.9418,-2.9458,-2.9473,-2.9492,-2.9506,-2.9554,-2.9581,-2.9587,-2.9601,-2.9633,-2.9661,-2.9663,-2.9675,-2.9693,-2.9691,-2.9611,-2.96,-2.959,-2.9577,-2.9695,-2.9696,-2.9773,-2.9774,-2.9774]}]]